Terminal Aerodrome Forecast
Issued by NWS

Home | Current Version | Previous Version | Text Only | Print | Product List | Glossary On
Versions: 1 2 3 4 5 6 7 8 9 10 11 12 13 14 15 16
489
FTUS45 KRIW 202328
TAFCOD
TAF
KCOD 202328Z 2100/2124 23015G25KT P6SM SCT100 WS010/24050KT
     FM210300 24011KT P6SM SCT100 WS010/24050KT
     FM211000 25015G25KT P6SM SCT100 BKN200 WS010/24050KT
      AMD LTD TO CLD VIS AND WIND=

USA.gov is the U.S. government's official web portal to all federal, state and local government web resources and services.